Location: Ergnies
(50.0854°N, 2.0375°E)
Time: 15:40:07
(UTC+00:00)

Cosmos 1992 Rocket - Pass Details

Date: 14 January 2026
Orbit: 754 x 761 km, 74.0° (Epoch: 18 February)

Event Time Altitude Azimuth Distance (km) Brightness Sun altitude
Exits shadow 05:18:10 54° 309° (NW) 922 4.0 -22.9°
Maximum altitude 05:19:13 70° 250° (WSW) 809 3.8 -22.7°
Drops below altitude 10° 05:24:22 10° 168° (SSE) 2,283 6.7 -21.9°
Sets 05:26:43 0° 166° (SSE) 3,206 7.5 -21.5°
